Location: Dodgeville
(42.9600°N, 90.1300°W)
Time: 15:19:10
(UTC-06:00)

Amateur Radio Satellites - All Passes

Search period start: 13 February 2016 14:49
Search period end: 14 February 2016 14:49
Location: Dodgeville, 42.9600°N, 90.1300°W

Satellite Date Start Highest point End Downlink Frequencies (MHz)
Time Altitude Azimuth
ISS 13 Feb 14:59:22 15:02:36 67° 329° (NNW) 15:05:51 145.825
AO-7 13 Feb 14:59:34 15:07:57 81° 253° (WSW) 15:16:23 29.400- 29.500
JAS-2 13 Feb 15:00:41 15:03:26 12° 273° (W) 15:06:08 435.910
KKS-1 13 Feb 15:03:46 15:07:52 36° 98° (E) 15:11:57 437.445
YUBILEINY 13 Feb 15:05:02 15:13:11 43° 273° (W) 15:21:16 435.215
RS-15 13 Feb 15:09:38 15:18:52 26° 353° (N) 15:28:26 29.354- 29.394
Cosmos 2491 13 Feb 15:11:51 15:20:33 75° 279° (W) 15:29:19 435.465 / 435.565
BEESAT 2 13 Feb 15:18:36 15:20:43 14° 110° (ESE) 15:22:50 435.950
O/OREOS (USA 219) 13 Feb 15:21:59 15:24:13 13° 49° (NE) 15:26:26 437.305
SWISSCUBE 13 Feb 15:23:27 15:27:07 22° 296° (WNW) 15:30:46 437.505
ITAMSAT 1 13 Feb 15:25:57 15:28:26 13° 271° (W) 15:30:58 435.822/435.867
MOZHAYETS 4 13 Feb 15:26:59 15:30:57 27° 95° (E) 15:34:54
HORYU 2 13 Feb 15:29:38 15:34:01 75° 75° (ENE) 15:38:27 437.375
CUTE-I 13 Feb 15:53:51 15:56:32 14° 58° (ENE) 15:59:13 437.470
M-CUBED/EXP-1 PRIME 13 Feb 15:56:09 15:59:03 23° 258° (WSW) 16:01:50 437.505
Cosmos 2504 13 Feb 15:58:30 16:07:06 80° 265° (W) 16:15:02 435.465 / 435.565
AUBIESAT-1 13 Feb 16:02:08 16:05:04 24° 258° (WSW) 16:07:54 437.475
ITUPSAT 1 13 Feb 16:04:22 16:05:47 11° 302° (WNW) 16:07:11 437.325
Cubesat XI-IV 13 Feb 16:07:50 16:11:25 19° 60° (ENE) 16:15:00 437.490
AO-85 13 Feb 16:11:07 16:14:10 15° 32° (NNE) 16:17:06 145.980
STARS 13 Feb 16:11:53 16:16:16 77° 286° (WNW) 16:20:38 437.465
CUBESAT XI-V 13 Feb 16:21:55 16:22:28 10° 87° (E) 16:23:02 437.345
BEESAT 3 13 Feb 16:22:20 16:26:18 78° 304° (NW) 16:30:19 437.485
LilacSat-2 13 Feb 16:29:31 16:31:48 16° 66° (ENE) 16:34:06 437.200
ISS 13 Feb 16:36:57 16:39:29 20° 348° (NNW) 16:42:01 145.825
KKS-1 13 Feb 16:40:47 16:44:15 23° 294° (WNW) 16:47:42 437.445
BRITE-PL 13 Feb 16:47:23 16:51:44 24° 65° (ENE) 16:55:56 437.365/2234.400
BEESAT 2 13 Feb 16:54:11 16:58:09 56° 306° (NW) 17:02:08 435.950
AO-7 13 Feb 16:57:07 17:01:55 16° 271° (W) 17:06:45 29.400- 29.500
O/OREOS (USA 219) 13 Feb 16:59:38 17:04:14 83° 250° (WSW) 17:08:51 437.305
MOZHAYETS 4 13 Feb 17:04:00 17:08:07 32° 292° (WNW) 17:12:13
HORYU 2 13 Feb 17:10:15 17:11:06 10° 271° (W) 17:11:58 437.375
Cosmos 2491 13 Feb 17:14:05 17:19:05 16° 303° (WNW) 17:24:08 435.465 / 435.565
PCSat 13 Feb 17:14:24 17:17:54 17° 39° (NE) 17:21:23 145.827
RS-15 13 Feb 17:25:44 17:36:20 34° 28° (NNE) 17:47:11 29.354- 29.394
CUTE-I 13 Feb 17:30:29 17:35:49 88° 261° (W) 17:41:12 437.470
GOMX 1 13 Feb 17:31:32 17:36:03 29° 68° (ENE) 17:40:21 467.674
AIST 2 13 Feb 17:44:23 17:48:24 50° 119° (ESE) 17:52:27 435.215
Cubesat XI-IV 13 Feb 17:45:40 17:50:57 65° 258° (WSW) 17:56:17 437.490
AO-85 13 Feb 17:50:35 17:55:47 66° 53° (NE) 18:00:29 145.980
Cosmos 2504 13 Feb 17:54:30 17:58:53 15° 286° (WNW) 18:03:09 435.465 / 435.565
CUBESAT XI-V 13 Feb 17:55:45 18:00:28 83° 284° (WNW) 18:05:09 437.345
LilacSat-2 13 Feb 18:02:14 18:05:49 39° 262° (W) 18:09:25 437.200
BEESAT 3 13 Feb 18:03:13 18:04:45 12° 324° (NW) 18:06:17 437.485
ISS 13 Feb 18:14:21 18:16:45 19° 8° (N) 18:19:10 145.825
BRITE-PL 13 Feb 18:24:18 18:29:50 54° 260° (W) 18:35:12 437.365/2234.400
DOVE 4 13 Feb 18:28:55 18:33:45 51° 73° (ENE) 18:38:19 437.250
HO-68 13 Feb 18:32:43 18:39:22 43° 64° (ENE) 18:46:04 435.675
GONETS M04 13 Feb 18:34:01 18:42:02 37° 70° (ENE) 18:50:01
STRAND 1 13 Feb 18:40:44 18:45:28 35° 97° (E) 18:50:10 437.568
CANX-2 13 Feb 18:41:58 18:45:37 29° 69° (ENE) 18:49:18 2200.000
CINEMA 3 13 Feb 18:52:59 18:56:54 30° 70° (ENE) 19:00:43 145.822/145.860
Cosmos 2499 13 Feb 18:54:57 19:01:00 21° 61° (ENE) 19:06:43 435.465 / 435.565
PCSat 13 Feb 18:56:41 19:02:09 83° 60° (ENE) 19:07:35 145.827
COMPASS 1 13 Feb 19:08:41 19:12:15 28° 69° (ENE) 19:15:50 437.405
GOMX 1 13 Feb 19:09:03 19:13:59 37° 263° (W) 19:18:42 467.674
PRISM 13 Feb 19:14:44 19:17:58 21° 94° (E) 19:21:10 437.425
CUTE-I 13 Feb 19:15:12 19:16:37 11° 273° (W) 19:18:01 437.470
AIST 2 13 Feb 19:24:01 19:27:11 20° 317° (NW) 19:30:21 435.215
SEEDS 13 Feb 19:29:57 19:34:05 66° 75° (ENE) 19:38:17 437.485
CUTE 1.7 + AOD 2 13 Feb 19:31:09 19:35:22 90° 348° (NNW) 19:39:38 437.475
AO-85 13 Feb 19:32:32 19:35:38 17° 253° (WSW) 19:38:35 145.980
AAUSAT CUBESAT 2 13 Feb 19:32:46 19:36:40 42° 72° (ENE) 19:40:37 437.432
CUBESAT XI-V 13 Feb 19:36:25 19:37:03 10° 302° (WNW) 19:37:41 437.345
RS-15 13 Feb 19:38:41 19:50:56 82° 56° (NE) 20:03:19 29.354- 29.394
Oscar 11 13 Feb 19:40:53 19:44:17 23° 67° (ENE) 19:47:43 145.826/435.025
ISS 13 Feb 19:50:35 19:53:45 49° 28° (NNE) 19:56:55 145.825
UWE-3 13 Feb 19:59:05 20:03:00 38° 71° (ENE) 20:06:52 435.000/436.395/437.385
CUBEBUG 2 13 Feb 20:07:12 20:11:26 67° 75° (ENE) 20:15:36 437.445
DOVE 4 13 Feb 20:08:14 20:11:40 18° 268° (W) 20:14:59 437.250
AIST 1 13 Feb 20:10:17 20:13:28 20° 71° (ENE) 20:16:37
DELFI C3 13 Feb 20:13:13 20:16:32 26° 69° (ENE) 20:19:54 145.870
CANX-2 13 Feb 20:18:01 20:21:28 25° 266° (W) 20:24:58 2200.000
STRAND 1 13 Feb 20:20:04 20:24:32 30° 294° (WNW) 20:28:59 437.568
HO-68 13 Feb 20:20:28 20:27:05 40° 262° (W) 20:33:47 435.675
HUMSAT D 13 Feb 20:26:05 20:28:37 16° 64° (ENE) 20:31:10 437.325/437.525
CINEMA 3 13 Feb 20:30:16 20:34:03 26° 265° (W) 20:37:44 145.822/145.860
GONETS M04 13 Feb 20:30:41 20:39:06 52° 271° (W) 20:47:32
PCSat 13 Feb 20:42:08 20:44:47 14° 257° (WSW) 20:47:26 145.827
ZACube-1 13 Feb 20:42:56 20:47:07 83° 77° (ENE) 20:51:17 437.345
COMPASS 1 13 Feb 20:44:22 20:47:48 25° 265° (W) 20:51:16 437.405
Cosmos 2499 13 Feb 20:46:56 20:55:17 82° 265° (W) 21:02:57 435.465 / 435.565
PRISM 13 Feb 20:49:37 20:53:22 33° 291° (WNW) 20:57:05 437.425
FUNcube-1 13 Feb 20:49:41 20:53:52 86° 257° (WSW) 20:58:02 145.935
SEEDS 13 Feb 21:09:10 21:10:16 11° 271° (W) 21:11:20 437.485
AAUSAT CUBESAT 2 13 Feb 21:09:43 21:12:23 17° 268° (W) 21:15:04 437.432
50 SAT 13 Feb 21:11:23 21:11:40 10° 62° (ENE) 21:11:58 437.505
VELOX 1 13 Feb 21:11:42 21:13:17 12° 60° (ENE) 21:14:52 145.980
Oscar 11 13 Feb 21:16:23 21:20:15 33° 263° (W) 21:24:10 145.826/435.025
UKube-1 13 Feb 21:17:33 21:19:14 12° 60° (ENE) 21:20:54 .
UNISAT 6 13 Feb 21:24:30 21:27:03 15° 92° (E) 21:29:38 437.425
ISS 13 Feb 21:27:26 21:30:00 22° 225° (SW) 21:32:32 145.825
AISAT 13 Feb 21:27:35 21:30:34 18° 63° (ENE) 21:33:34 437.250
CUBEBUG 1 13 Feb 21:34:39 21:37:28 17° 63° (ENE) 21:40:16 437.445
DX 1 13 Feb 21:35:33 21:38:53 22° 65° (ENE) 21:42:13 434.975-435.025
UWE-3 13 Feb 21:36:42 21:39:37 18° 267° (W) 21:42:32 435.000/436.395/437.385
AIST 1 13 Feb 21:47:13 21:51:12 36° 269° (W) 21:55:08
CUBEBUG 2 13 Feb 21:47:30 21:48:29 11° 271° (W) 21:49:29 437.445
DELFI C3 13 Feb 21:48:06 21:51:24 25° 265° (W) 21:54:43 145.870
RS-15 13 Feb 21:52:20 22:02:10 30° 257° (WSW) 22:12:05 29.354- 29.394
HUMSAT D 13 Feb 22:00:01 22:03:55 44° 261° (W) 22:07:51 437.325/437.525
ESTCUBE 1 13 Feb 22:05:29 22:09:47 45° 71° (ENE) 22:14:08 437.505/2401.250
ANTELSAT 13 Feb 22:08:09 22:12:20 43° 99° (E) 22:16:36 437.575/2403.000
PHONESAT 2.4 13 Feb 22:13:15 22:14:36 12° 150° (SSE) 22:15:58 2401.200-2431.200
TIGRISAT 13 Feb 22:13:27 22:17:41 47° 100° (E) 22:21:58 435.000
POLYITAN 1 13 Feb 22:21:19 22:23:36 14° 91° (E) 22:25:52 437.675
QB50P2 13 Feb 22:21:38 22:24:02 15° 91° (E) 22:26:26 145.880/145.840
50 SAT 13 Feb 22:41:29 22:45:08 64° 258° (WSW) 22:48:52 437.505
Cosmos 2499 13 Feb 22:42:37 22:46:52 15° 286° (WNW) 22:51:00 435.465 / 435.565
VELOX 1 13 Feb 22:44:39 22:49:07 80° 256° (WSW) 22:53:37 145.980
TISAT 1 13 Feb 22:46:40 22:48:33 13° 62° (ENE) 22:50:26 437.305
POPSAT HIP 1 13 Feb 22:49:14 22:52:51 28° 96° (E) 22:56:29 437.405
UKube-1 13 Feb 22:50:21 22:54:41 74° 257° (WSW) 22:59:03 .
DUCHIFAT 1 13 Feb 22:50:32 22:54:06 27° 96° (E) 22:57:39 145.980
NANOSAT C BR1 13 Feb 22:51:05 22:54:43 28° 96° (E) 22:58:21 145.865
SPROUT 13 Feb 22:52:21 22:56:17 37° 70° (ENE) 23:00:15 437.525
UNISAT 6 13 Feb 22:59:49 23:04:04 52° 287° (WNW) 23:08:23 437.425
QB50P1 13 Feb 23:01:14 23:05:10 38° 98° (E) 23:09:05 145.935-145.965
AISAT 13 Feb 23:02:22 23:06:42 49° 260° (W) 23:11:02 437.250
BEESAT 3 13 Feb 23:03:10 23:04:44 12° 36° (NE) 23:06:18 437.485
CUBEBUG 1 13 Feb 23:09:01 23:13:21 52° 260° (W) 23:17:41 437.445
DX 1 13 Feb 23:10:46 23:14:50 38° 261° (W) 23:18:57 434.975-435.025
CUSAT 1 13 Feb 23:23:30 23:27:53 16° 80° (E) 23:32:11 437.405
Cosmos 2491 13 Feb 23:27:37 23:30:37 12° 53° (NE) 23:33:37 435.465 / 435.565
BUGSAT 1 13 Feb 23:32:50 23:36:39 40° 99° (E) 23:40:26 437.445
BEESAT 2 13 Feb 23:34:56 23:37:19 15° 40° (NE) 23:39:42 435.950
ESTCUBE 1 13 Feb 23:43:39 23:46:50 19° 268° (W) 23:50:01 437.505/2401.250
ANTELSAT 13 Feb 23:45:41 23:48:47 19° 295° (WNW) 23:51:54 437.575/2403.000
PHONESAT 2.4 13 Feb 23:48:15 23:51:18 37° 165° (SSE) 23:54:22 2401.200-2431.200
TIGRISAT 13 Feb 23:51:08 23:54:03 18° 295° (WNW) 23:57:00 435.000
POLYITAN 1 13 Feb 23:55:37 23:59:43 51° 287° (WNW) 00:03:47 437.675
QB50P2 13 Feb 23:56:03 00:00:08 49° 288° (WNW) 00:04:12 145.880/145.840
ITUPSAT 1 13 Feb 23:56:07 23:58:50 15° 61° (ENE) 00:01:34 437.325
BEESAT 14 Feb 00:01:10 00:04:13 17° 62° (ENE) 00:07:18 436.000
TISAT 1 14 Feb 00:19:31 00:23:42 64° 259° (W) 00:27:54 437.305
JAS-2 14 Feb 00:22:17 00:24:06 12° 86° (E) 00:25:53 435.910
POPSAT HIP 1 14 Feb 00:25:05 00:28:35 26° 292° (WNW) 00:32:04 437.405
DUCHIFAT 1 14 Feb 00:26:14 00:29:45 27° 292° (WNW) 00:33:16 145.980
NANOSAT C BR1 14 Feb 00:26:55 00:30:23 25° 292° (WNW) 00:33:49 145.865
SPROUT 14 Feb 00:29:11 00:32:23 20° 267° (W) 00:35:35 437.525
DANDE 14 Feb 00:31:29 00:38:21 31° 85° (E) 00:45:26 436.750
Oscar 19 14 Feb 00:36:59 00:41:03 23° 94° (E) 00:45:06 437.125/150
QB50P1 14 Feb 00:37:40 00:40:42 20° 295° (WNW) 00:43:44 145.935-145.965
BEESAT 3 14 Feb 00:39:10 00:43:10 80° 56° (NE) 00:47:06 437.485
SWISSCUBE 14 Feb 00:52:10 00:56:49 56° 72° (ENE) 01:01:31 437.505
CUSAT 1 14 Feb 01:00:59 01:09:05 75° 96° (E) 01:16:50 437.405
BUGSAT 1 14 Feb 01:09:05 01:11:45 17° 295° (WNW) 01:14:24 437.445
BEESAT 2 14 Feb 01:11:41 01:15:41 72° 239° (WSW) 01:19:38 435.950
Cosmos 2491 14 Feb 01:21:04 01:29:42 59° 77° (ENE) 01:38:19 435.465 / 435.565
PHONESAT 2.4 14 Feb 01:25:06 01:28:20 55° 181° (S) 01:31:33 2401.200-2431.200
ITUPSAT 1 14 Feb 01:31:22 01:36:07 68° 258° (WSW) 01:40:55 437.325
STARS 14 Feb 01:36:18 01:37:46 11° 60° (ENE) 01:39:13 437.465
BEESAT 14 Feb 01:36:52 01:41:33 58° 259° (W) 01:46:17 436.000
Gurwin Techsat 1B 14 Feb 01:44:04 01:49:01 38° 97° (E) 01:53:56 435.225
ITAMSAT 1 14 Feb 01:55:44 02:00:02 25° 94° (E) 02:04:18 435.822/435.867
KKS-1 14 Feb 02:02:35 02:06:41 37° 69° (ENE) 02:10:48 437.445
JAS-2 14 Feb 02:04:32 02:10:06 82° 286° (WNW) 02:15:18 435.910
AIST 2 14 Feb 02:04:58 02:08:57 43° 51° (NE) 02:12:53 435.215
YUBILEINY 14 Feb 02:09:55 02:18:12 49° 88° (E) 02:26:32 435.215
DANDE 14 Feb 02:12:43 02:20:47 65° 284° (WNW) 02:29:11 436.750
Oscar 19 14 Feb 02:15:42 02:20:33 44° 291° (WNW) 02:25:23 437.125/150
MOZHAYETS 4 14 Feb 02:29:47 02:33:42 29° 68° (ENE) 02:37:39
SWISSCUBE 14 Feb 02:32:01 02:34:58 16° 269° (W) 02:37:57 437.505
CUSAT 1 14 Feb 02:45:20 02:51:57 27° 294° (WNW) 02:58:17 437.405
Cosmos 2504 14 Feb 02:47:04 02:52:27 18° 76° (ENE) 02:57:52 435.465 / 435.565
AO-7 14 Feb 03:00:43 03:08:00 33° 96° (E) 03:15:13 29.400- 29.500
PHONESAT 2.4 14 Feb 03:02:22 03:05:19 31° 198° (SSW) 03:08:15 2401.200-2431.200
SO-50 14 Feb 03:03:49 03:08:00 29° 113° (ESE) 03:12:13 436.795
STARS 14 Feb 03:09:07 03:13:30 79° 257° (WSW) 03:17:55 437.465
Cosmos 2491 14 Feb 03:18:39 03:26:00 32° 277° (W) 03:33:24 435.465 / 435.565
HORYU 2 14 Feb 03:21:25 03:23:32 13° 90° (E) 03:25:39 437.375
Gurwin Techsat 1B 14 Feb 03:24:16 03:28:49 30° 295° (WNW) 03:33:22 435.225
CUBESAT XI-V 14 Feb 03:25:26 03:27:31 13° 60° (ENE) 03:29:35 437.345
ITAMSAT 1 14 Feb 03:34:43 03:39:38 42° 292° (WNW) 03:44:33 435.822/435.867
M-CUBED/EXP-1 PRIME 14 Feb 03:34:49 03:36:35 13° 99° (E) 03:38:23 437.505
KKS-1 14 Feb 03:39:56 03:43:22 21° 266° (W) 03:46:48 437.445
AUBIESAT-1 14 Feb 03:40:27 03:42:09 13° 99° (E) 03:43:54 437.475
AIST 2 14 Feb 03:44:12 03:47:09 19° 248° (WSW) 03:50:04 435.215
JAS-2 14 Feb 03:52:21 03:54:09 12° 307° (NW) 03:55:55 435.910
DANDE 14 Feb 04:00:36 04:05:22 16° 304° (NW) 04:10:10 436.750
MOZHAYETS 4 14 Feb 04:06:49 04:10:48 29° 265° (W) 04:14:50
YUBILEINY 14 Feb 04:07:03 04:15:08 39° 289° (WNW) 04:23:19 435.215
Cosmos 2504 14 Feb 04:35:44 04:44:26 85° 96° (E) 04:53:24 435.465 / 435.565
SO-50 14 Feb 04:43:41 04:48:21 41° 312° (NW) 04:53:03 436.795
AO-7 14 Feb 04:53:02 05:01:09 59° 295° (WNW) 05:09:13 29.400- 29.500
HORYU 2 14 Feb 04:56:05 05:00:30 62° 287° (WNW) 05:04:54 437.375
CUBESAT XI-V 14 Feb 04:59:32 05:04:14 79° 256° (WSW) 05:09:00 437.345
M-CUBED/EXP-1 PRIME 14 Feb 05:08:06 05:11:21 40° 293° (WNW) 05:14:49 437.505
AUBIESAT-1 14 Feb 05:13:32 05:16:53 43° 292° (WNW) 05:20:25 437.475
LilacSat-2 14 Feb 05:35:19 05:38:04 19° 93° (E) 05:40:50 437.200
CUTE-I 14 Feb 05:46:53 05:51:48 35° 97° (E) 05:56:40 437.470
STRAND 1 14 Feb 05:57:19 06:02:18 55° 71° (ENE) 06:07:20 437.568
Cubesat XI-IV 14 Feb 06:01:58 06:07:11 47° 99° (E) 06:12:21 437.490
PRISM 14 Feb 06:05:32 06:08:28 19° 65° (ENE) 06:11:26 437.425
BRITE-PL 14 Feb 06:29:03 06:33:30 46° 98° (E) 06:37:38 437.365/2234.400
SO-50 14 Feb 06:29:11 06:30:11 11° 333° (NNW) 06:31:10 436.795
DOVE 4 14 Feb 06:30:11 06:30:35 10° 88° (E) 06:31:00 437.250
Cosmos 2504 14 Feb 06:32:20 06:38:58 23° 297° (WNW) 06:45:43 435.465 / 435.565
AO-7 14 Feb 06:48:04 06:52:13 15° 317° (NW) 06:56:22 29.400- 29.500
LilacSat-2 14 Feb 07:09:07 07:12:27 30° 289° (WNW) 07:15:46 437.200
GOMX 1 14 Feb 07:10:04 07:14:23 62° 101° (E) 07:18:30 467.674
O/OREOS (USA 219) 14 Feb 07:12:35 07:17:04 82° 293° (WNW) 07:21:37 437.305
SEEDS 14 Feb 07:15:51 07:16:37 10° 88° (E) 07:17:22 437.485
CUTE 1.7 + AOD 2 14 Feb 07:16:34 07:19:02 15° 91° (E) 07:21:30 437.475
CUTE-I 14 Feb 07:27:01 07:31:46 33° 294° (WNW) 07:36:31 437.470
Cosmos 2499 14 Feb 07:34:12 07:39:17 17° 76° (ENE) 07:44:24 435.465 / 435.565
GONETS M04 14 Feb 07:36:31 07:44:21 40° 86° (E) 07:52:14
STRAND 1 14 Feb 07:38:18 07:41:50 19° 268° (W) 07:45:23 437.568
PRISM 14 Feb 07:39:36 07:43:31 40° 261° (W) 07:47:29 437.425
Cubesat XI-IV 14 Feb 07:42:39 07:46:58 25° 297° (WNW) 07:51:15 437.490
HO-68 14 Feb 07:46:34 07:53:16 40° 98° (E) 07:59:55 435.675
CUBEBUG 2 14 Feb 07:58:43 08:00:32 12° 90° (E) 08:02:21 437.445
CANX-2 14 Feb 08:01:11 08:05:24 51° 100° (E) 08:09:35 2200.000
DOVE 4 14 Feb 08:04:39 08:08:49 66° 285° (WNW) 08:12:55 437.250
AO-85 14 Feb 08:06:15 08:10:10 21° 109° (ESE) 08:14:11 145.980
BRITE-PL 14 Feb 08:08:29 08:11:36 18° 297° (WNW) 08:14:34 437.365/2234.400
CINEMA 3 14 Feb 08:22:57 08:27:06 65° 101° (ESE) 08:31:17 145.822/145.860
UNISAT 6 14 Feb 08:24:53 08:27:22 15° 63° (ENE) 08:29:52 437.425
COMPASS 1 14 Feb 08:25:32 08:29:38 46° 99° (E) 08:33:43 437.405
ZACube-1 14 Feb 08:31:29 08:33:55 15° 91° (E) 08:36:21 437.345
FUNcube-1 14 Feb 08:37:42 08:40:25 16° 92° (E) 08:43:10 145.935
AIST 1 14 Feb 08:42:48 08:44:05 11° 83° (E) 08:45:22
SEEDS 14 Feb 08:48:32 08:52:47 71° 286° (WNW) 08:57:02 437.485
AAUSAT CUBESAT 2 14 Feb 08:49:22 08:53:35 72° 101° (E) 08:57:46 437.432
GOMX 1 14 Feb 08:49:57 08:51:55 13° 299° (WNW) 08:53:50 467.674
CUTE 1.7 + AOD 2 14 Feb 08:51:01 08:55:11 50° 287° (WNW) 08:59:20 437.475
O/OREOS (USA 219) 14 Feb 08:55:59 08:57:15 11° 313° (NW) 08:58:32 437.305
Oscar 11 14 Feb 09:02:13 09:06:20 40° 98° (E) 09:10:26 145.826/435.025
ANTELSAT 14 Feb 09:07:59 09:12:01 41° 71° (ENE) 09:16:02 437.575/2403.000
TIGRISAT 14 Feb 09:13:05 09:17:09 45° 72° (ENE) 09:21:13 435.000
POLYITAN 1 14 Feb 09:15:40 09:17:40 13° 62° (ENE) 09:19:40 437.675
QB50P2 14 Feb 09:15:54 09:18:02 14° 63° (ENE) 09:20:11 145.880/145.840
Cosmos 2499 14 Feb 09:22:12 09:30:59 81° 96° (E) 09:39:52 435.465 / 435.565
UWE-3 14 Feb 09:23:28 09:27:44 78° 103° (ESE) 09:32:04 435.000/436.395/437.385
DELFI C3 14 Feb 09:24:31 09:28:19 37° 98° (E) 09:32:04 145.870
GONETS M04 14 Feb 09:32:45 09:41:00 47° 286° (WNW) 09:49:21
CUBEBUG 2 14 Feb 09:33:21 09:37:31 59° 286° (WNW) 09:41:45 437.445
HO-68 14 Feb 09:34:18 09:40:58 43° 296° (WNW) 09:47:38 435.675
CANX-2 14 Feb 09:38:14 09:40:50 16° 296° (WNW) 09:43:27 2200.000
PCSat 14 Feb 09:38:56 09:44:16 65° 116° (ESE) 09:49:40 145.827
HUMSAT D 14 Feb 09:42:42 09:46:13 25° 95° (E) 09:49:45 437.325/437.525
POPSAT HIP 1 14 Feb 09:42:51 09:46:16 24° 67° (ENE) 09:49:40 437.405
DUCHIFAT 1 14 Feb 09:43:37 09:46:57 23° 67° (ENE) 09:50:16 145.980
NANOSAT C BR1 14 Feb 09:44:21 09:47:47 25° 67° (ENE) 09:51:12 145.865
AO-85 14 Feb 09:44:53 09:50:13 64° 307° (NW) 09:55:43 145.980
QB50P1 14 Feb 09:54:35 09:58:22 32° 69° (ENE) 10:02:08 145.935-145.965
UNISAT 6 14 Feb 09:59:30 10:03:41 52° 260° (W) 10:07:53 437.425
CINEMA 3 14 Feb 10:02:08 10:03:45 12° 298° (WNW) 10:05:22 145.822/145.860
COMPASS 1 14 Feb 10:02:09 10:04:51 17° 296° (WNW) 10:07:33 437.405
RS-15 14 Feb 10:03:20 10:13:43 48° 110° (ESE) 10:24:36 29.354- 29.394
ZACube-1 14 Feb 10:06:22 10:10:29 50° 287° (WNW) 10:14:41 437.345
FUNcube-1 14 Feb 10:12:50 10:16:54 45° 288° (WNW) 10:21:01 145.935
50 SAT 14 Feb 10:14:04 10:15:15 11° 90° (E) 10:16:26 437.505
AIST 1 14 Feb 10:16:41 10:21:03 66° 280° (W) 10:25:27
BUGSAT 1 14 Feb 10:23:24 10:27:08 32° 69° (ENE) 10:30:50 437.445
AAUSAT CUBESAT 2 14 Feb 10:27:03 10:28:30 12° 299° (WNW) 10:29:57 437.432
VELOX 1 14 Feb 10:35:00 10:38:01 18° 92° (E) 10:41:01 145.980
UKube-1 14 Feb 10:37:45 10:40:35 17° 93° (E) 10:43:24 .
JAS-2 14 Feb 10:38:38 10:38:55 10° 52° (NE) 10:39:11 435.910
Oscar 11 14 Feb 10:39:01 10:42:12 20° 294° (WNW) 10:45:22 145.826/435.025
ANTELSAT 14 Feb 10:46:03 10:48:56 18° 267° (W) 10:51:49 437.575/2403.000
POLYITAN 1 14 Feb 10:48:48 10:52:59 61° 259° (WSW) 10:57:11 437.675
QB50P2 14 Feb 10:49:12 10:53:22 59° 259° (W) 10:57:34 145.880/145.840
TIGRISAT 14 Feb 10:51:24 10:54:05 16° 268° (W) 10:56:47 435.000
AISAT 14 Feb 10:52:00 10:55:49 28° 96° (E) 10:59:35 437.250
CUBEBUG 1 14 Feb 10:57:09 11:00:49 26° 95° (E) 11:04:26 437.445
DX 1 14 Feb 10:57:57 11:01:53 32° 97° (E) 11:05:46 434.975-435.025
DELFI C3 14 Feb 11:00:07 11:02:58 19° 294° (WNW) 11:05:48 145.870
UWE-3 14 Feb 11:02:34 11:03:37 11° 299° (WNW) 11:04:40 435.000/436.395/437.385
DANDE 14 Feb 11:12:57 11:17:34 20° 58° (ENE) 11:21:26 436.750
POPSAT HIP 1 14 Feb 11:18:13 11:21:56 30° 263° (W) 11:25:40 437.405
Cosmos 2499 14 Feb 11:18:13 11:25:07 25° 296° (WNW) 11:32:03 435.465 / 435.565
HUMSAT D 14 Feb 11:18:14 11:21:49 28° 291° (WNW) 11:25:27 437.325/437.525
DUCHIFAT 1 14 Feb 11:18:45 11:22:31 31° 263° (W) 11:26:17 145.980
NANOSAT C BR1 14 Feb 11:19:43 11:23:25 29° 264° (W) 11:27:07 145.865
PCSat 14 Feb 11:23:52 11:28:08 23° 316° (NW) 11:32:27 145.827
AO-85 14 Feb 11:28:32 11:31:51 16° 327° (NNW) 11:35:10 145.980
QB50P1 14 Feb 11:30:52 11:34:11 22° 266° (W) 11:37:31 145.935-145.965
ESTCUBE 1 14 Feb 11:33:32 11:38:07 87° 108° (ESE) 11:42:38 437.505/2401.250
SO-50 14 Feb 11:34:01 11:38:28 34° 47° (NE) 11:42:45 436.795
CUSAT 1 14 Feb 11:39:16 11:44:28 47° 72° (ENE) 11:48:23 437.405
50 SAT 14 Feb 11:45:51 11:49:35 53° 286° (WNW) 11:53:18 437.505
Oscar 19 14 Feb 11:54:25 11:59:10 38° 68° (ENE) 12:03:55 437.125/150
BUGSAT 1 14 Feb 11:59:20 12:02:34 22° 266° (W) 12:05:47 437.445
TISAT 1 14 Feb 12:03:36 12:06:27 18° 93° (E) 12:09:17 437.305
VELOX 1 14 Feb 12:10:32 12:14:43 44° 289° (WNW) 12:18:53 145.980
UKube-1 14 Feb 12:12:45 12:16:53 45° 289° (WNW) 12:20:58 .
SPROUT 14 Feb 12:13:03 12:17:18 64° 102° (ESE) 12:21:31 437.525
AO-7 14 Feb 12:14:29 12:17:30 12° 40° (NE) 12:20:30 29.400- 29.500
RS-15 14 Feb 12:14:57 12:25:57 57° 314° (NW) 12:37:37 29.354- 29.394
JAS-2 14 Feb 12:15:32 12:22:42 52° 70° (ENE) 12:29:09 435.910
YUBILEINY 14 Feb 12:19:11 12:26:13 25° 64° (ENE) 12:33:09 435.215
AISAT 14 Feb 12:28:29 12:32:15 28° 292° (WNW) 12:35:58 437.250
CUBEBUG 1 14 Feb 12:33:19 12:37:06 29° 292° (WNW) 12:40:50 437.445
Cosmos 2491 14 Feb 12:34:05 12:36:33 11° 72° (ENE) 12:39:01 435.465 / 435.565
DX 1 14 Feb 12:34:26 12:37:56 24° 294° (WNW) 12:41:24 434.975-435.025
SWISSCUBE 14 Feb 12:53:11 12:55:31 13° 90° (E) 12:57:50 437.505
DANDE 14 Feb 12:55:01 13:01:29 64° 266° (W) 13:06:16 436.750
Gurwin Techsat 1B 14 Feb 13:05:54 13:11:09 65° 73° (ENE) 13:16:26 435.225
ESTCUBE 1 14 Feb 13:12:59 13:14:12 11° 301° (WNW) 13:15:25 437.505/2401.250
ITAMSAT 1 14 Feb 13:14:21 13:19:13 42° 69° (ENE) 13:24:07 435.822/435.867
SO-50 14 Feb 13:14:38 13:18:55 33° 245° (WSW) 13:23:04 436.795
CUSAT 1 14 Feb 13:22:55 13:25:53 16° 280° (W) 13:28:28 437.405
ITUPSAT 1 14 Feb 13:31:18 13:35:30 29° 96° (E) 13:39:39 437.325
Oscar 19 14 Feb 13:34:10 13:38:33 28° 265° (W) 13:42:58 437.125/150
BEESAT 14 Feb 13:36:13 13:40:33 33° 97° (E) 13:44:51 436.000
TISAT 1 14 Feb 13:38:23 13:42:18 39° 289° (WNW) 13:46:10 437.305
SPROUT 14 Feb 13:50:47 13:52:45 13° 298° (WNW) 13:54:43 437.525
AO-7 14 Feb 14:00:22 14:08:17 49° 62° (ENE) 14:16:13 29.400- 29.500
JAS-2 14 Feb 14:01:19 14:07:50 32° 265° (W) 14:13:53 435.910
ISS 14 Feb 14:06:36 14:09:50 67° 144° (SE) 14:13:03 145.825
YUBILEINY 14 Feb 14:15:07 14:23:57 76° 266° (W) 14:32:42 435.215
HORYU 2 14 Feb 14:20:37 14:23:04 15° 62° (ENE) 14:25:33 437.375
M-CUBED/EXP-1 PRIME 14 Feb 14:22:45 14:25:20 20° 63° (ENE) 14:27:51 437.505
Cosmos 2491 14 Feb 14:22:58 14:31:31 65° 92° (E) 14:40:07 435.465 / 435.565
AUBIESAT-1 14 Feb 14:27:55 14:30:25 19° 63° (ENE) 14:32:51 437.475
Cosmos 2504 14 Feb 14:28:28 14:36:05 34° 68° (ENE) 14:43:10 435.465 / 435.565
SWISSCUBE 14 Feb 14:29:00 14:33:48 69° 286° (WNW) 14:38:33 437.505
BEESAT 3 14 Feb 14:34:24 14:35:06 10° 108° (ESE) 14:35:50 437.485
